GW5170 Weather Reports


time (UTC)temp
F
wind
direction
speed
knots
gust
knots
rain 1hr
in
rain 24hr
in
rain mn
in
humidity
%
barometer
mb
20260901153923 88 200 2.6 2.6 0.00 0.00 0.00 78 1015.9
20260901153424 87 299 2.6 2.6 0.00 0.00 0.00 78 1015.8
20260901152917 86 192 3.5 3.5 0.00 0.00 0.00 81 1016.0
20260901152412 85 211 2.6 2.6 0.00 0.00 0.00 81 1015.7
20260901151912 84 216 2.6 3.5 0.00 0.00 0.00 83 1015.7
20260901151407 85 13 2.6 2.6 0.00 0.00 0.00 81 1015.8
20260901150906 83 261 2.6 2.6 0.00 0.00 0.00 84 1015.9
20260901150404 83 262 3.5 3.5 0.00 0.00 0.00 84 1015.9
20260901145902 82 245 1.7 1.7 0.00 0.00 0.00 84 1015.4
20260901145402 82 284 3.5 5.2 0.00 0.00 0.00 87 1015.7
20260901144902 82 226 3.5 3.5 0.00 0.00 0.00 86 1015.6
20260901144357 84 225 1.7 1.7 0.00 0.00 0.00 81 1015.9
20260901143853 82 316 0.9 0.9 0.00 0.00 0.00 84 1015.8
20260901143349 80 325 0.9 1.7 0.00 0.00 0.00 88 1016.0
20260901142845 82 304 1.7 2.6 0.00 0.00 0.00 84 1016.0
20260901142344 80 325 0.0 0.9 0.00 0.00 0.00 87 1016.0
20260901141839 79 340 0.0 0.0 0.00 0.00 0.00 89 1016.1
20260901141334 79 350 0.9 0.9 0.00 0.00 0.00 89 1016.0
20260901140833 78 329 0.9 0.9 0.00 0.00 0.00 90 1016.2
20260901140331 78 299 1.7 1.7 0.00 0.00 0.00 90 1016.0
20260901135826 77 331 0.9 1.7 0.00 0.00 0.00 91 1016.2
20260901135322 77 280 1.7 2.6 0.00 0.00 0.00 91 1016.2
20260901134818 77 271 2.6 2.6 0.00 0.00 0.00 90 1016.1
20260901134313 77 320 0.9 1.7 0.00 0.00 0.00 90 1016.2
20260901133807 77 335 0.9 1.7 0.00 0.00 0.00 90 1016.3
20260901133306 77 326 0.9 0.9 0.00 0.00 0.00 90 1016.1
20260901132805 77 340 0.9 0.9 0.00 0.00 0.00 90 1016.1
20260901132300 77 318 0.9 0.9 0.00 0.00 0.00 90 1016.0
20260901131759 78 221 0.9 1.7 0.00 0.00 0.00 89 1016.0
20260901131259 78 324 0.9 0.9 0.00 0.00 0.00 89 1015.9
20260901130754 77 345 0.0 0.0 0.00 0.00 0.00 89 1016.0
20260901130249 76 345 0.0 0.0 0.00 0.00 0.00 90 1016.1
20260901125747 76 331 0.9 0.9 0.00 0.00 0.00 92 1016.1
20260901125242 75 324 0.9 0.9 0.00 0.00 0.00 93 1016.1
20260901124741 74 350 0.0 0.0 0.00 0.00 0.00 94 1016.1
20260901124236 74 292 0.9 0.9 0.00 0.00 0.00 94 1016.1
20260901123736 74 295 0.9 1.7 0.00 0.00 0.00 94 1016.0
20260901123231 74 231 1.7 2.6 0.00 0.00 0.00 94 1016.0
20260901122730 74 334 0.9 0.9 0.00 0.00 0.00 95 1016.0
20260901122224 74 336 0.9 0.9 0.00 0.00 0.00 95 1016.1
20260901121719 74 328 0.9 0.9 0.00 0.00 0.00 95 1015.8
20260901121214 74 313 0.9 0.9 0.00 0.00 0.00 95 1015.9
20260901120714 74 290 0.9 0.9 0.00 0.00 0.00 95 1016.1
20260901120209 73 332 0.0 0.0 0.00 0.00 0.00 95 1015.7
20260901115704 73 345 0.0 0.0 0.00 0.00 0.00 95 1015.8
20260901115200 73 337 0.0 0.0 0.00 0.00 0.00 96 1015.7
20260901114657 72 344 0.0 0.0 0.00 0.00 0.00 97 1015.7
20260901114156 72 316 0.9 0.9 0.00 0.00 0.00 97 1015.5
20260901113655 72 344 0.0 0.0 0.00 0.00 0.00 97 1015.6
20260901113150 72 349 0.0 0.0 0.00 0.00 0.00 96 1015.4
20260901112644 72 351 0.9 0.9 0.00 0.00 0.00 96 1015.3
20260901112139 72 341 0.0 0.0 0.00 0.00 0.00 96 1015.5
20260901111638 72 341 0.0 0.0 0.00 0.00 0.00 96 1015.4
20260901111137 72 348 0.0 0.0 0.00 0.00 0.00 95 1015.3
20260901110633 73 353 0.0 0.0 0.00 0.00 0.00 95 1015.3
20260901110128 73 344 0.0 0.0 0.00 0.00 0.00 95 1015.3
20260901105624 73 344 0.0 0.0 0.00 0.00 0.00 95 1015.2
20260901105123 73 341 0.0 0.0 0.00 0.00 0.00 95 1015.1
20260901104619 73 339 0.0 0.0 0.00 0.00 0.00 96 1015.1
20260901104114 73 336 0.9 0.9 0.00 0.00 0.00 95 1015.3
20260901103609 73 333 0.0 0.0 0.00 0.00 0.00 96 1015.1
20260901103104 73 347 0.0 0.0 0.00 0.00 0.00 96 1015.0
20260901102559 74 347 0.0 0.9 0.00 0.00 0.00 96 1014.9
20260901102054 73 326 0.9 0.9 0.00 0.00 0.00 96 1015.0
20260901101549 73 334 0.0 0.0 0.00 0.00 0.00 96 1014.9
20260901101048 73 334 0.0 0.0 0.00 0.00 0.00 96 1014.7
20260901100543 73 339 0.0 0.0 0.00 0.00 0.00 96 1014.7
20260901100043 73 338 0.0 0.0 0.00 0.00 0.00 96 1014.8
20260901095541 73 340 0.0 0.0 0.00 0.00 0.00 96 1014.8
20260901095039 73 340 0.0 0.0 0.00 0.00 0.00 96 1014.8
20260901094534 73 353 0.9 0.9 0.00 0.00 0.00 97 1014.8
20260901094033 73 339 0.0 0.9 0.00 0.00 0.00 97 1014.9
20260901093528 72 339 0.0 0.0 0.00 0.00 0.00 97 1014.8
20260901093023 73 338 0.9 0.9 0.00 0.00 0.00 96 1014.7
20260901092519 73 341 0.9 0.9 0.00 0.00 0.00 96 1014.8
20260901092015 73 350 0.9 0.9 0.00 0.00 0.00 96 1014.9
20260901091510 73 8 0.9 0.9 0.00 0.00 0.00 95 1014.8
20260901091009 74 349 0.0 0.0 0.00 0.00 0.00 95 1014.7
20260901090509 74 326 0.0 0.9 0.00 0.00 0.00 95 1014.8
20260901090005 74 326 0.9 0.9 0.00 0.00 0.00 95 1014.8
20260901085500 74 346 0.0 0.0 0.00 0.00 0.00 96 1014.8
20260901084956 74 349 0.0 0.0 0.00 0.00 0.00 95 1014.6
20260901084452 74 336 0.0 0.0 0.00 0.00 0.00 95 1014.6
20260901083948 74 339 0.9 0.9 0.00 0.00 0.00 95 1014.5
20260901083443 74 339 0.0 0.0 0.00 0.00 0.00 95 1014.6
20260901082941 74 337 0.9 0.9 0.00 0.00 0.00 95 1014.6
20260901082436 74 352 0.9 0.9 0.00 0.00 0.00 95 1014.7
20260901081931 74 352 0.0 0.0 0.00 0.00 0.00 95 1014.7
20260901081426 74 349 0.0 0.0 0.00 0.00 0.00 95 1014.7
20260901080921 75 349 0.0 0.0 0.00 0.00 0.00 94 1014.7
20260901080420 75 337 0.0 0.0 0.00 0.00 0.00 94 1014.7
20260901075916 75 326 0.9 0.9 0.00 0.00 0.00 94 1014.7
20260901075416 75 302 1.7 1.7 0.00 0.00 0.00 94 1014.9
20260901074915 75 336 0.0 0.0 0.00 0.00 0.00 94 1014.7
20260901074410 74 331 0.9 0.9 0.00 0.00 0.00 94 1014.8
20260901073906 75 345 0.0 0.0 0.00 0.00 0.00 94 1014.8
20260901073402 75 345 0.0 0.0 0.00 0.00 0.00 94 1014.8
20260901072857 75 345 0.0 0.0 0.00 0.00 0.00 94 1014.8
20260901072357 75 344 0.0 0.0 0.00 0.00 0.00 94 1014.8
20260901071852 75 345 0.0 0.9 0.00 0.00 0.00 94 1014.8
20260901071351 75 355 0.0 0.0 0.00 0.00 0.00 94 1014.7
20260901070850 75 355 0.0 0.0 0.00 0.00 0.00 93 1014.8
20260901070346 75 354 0.0 0.0 0.00 0.00 0.00 93 1014.7
20260901065844 75 355 0.0 0.0 0.00 0.00 0.00 93 1014.6
20260901065339 75 357 0.0 0.0 0.00 0.00 0.00 94 1014.7
20260901064835 75 338 0.0 0.0 0.00 0.00 0.00 94 1014.7
20260901064331 75 338 0.0 0.0 0.00 0.00 0.00 94 1014.7
20260901063829 75 345 0.0 0.0 0.00 0.00 0.00 93 1014.9
20260901063325 76 345 0.0 0.0 0.00 0.00 0.00 92 1015.1
20260901062821 76 345 0.0 0.0 0.00 0.00 0.00 91 1014.9
20260901062317 77 337 0.0 0.0 0.00 0.00 0.00 91 1014.8
20260901061812 77 338 0.0 0.0 0.00 0.00 0.00 91 1014.8
20260901061312 76 345 0.9 0.9 0.00 0.00 0.00 91 1015.0
20260901060808 76 349 0.0 0.0 0.00 0.00 0.00 92 1014.9
20260901060303 77 346 0.0 0.0 0.00 0.00 0.00 91 1014.8
20260901055758 77 336 0.0 0.0 0.00 0.00 0.00 91 1014.9
20260901055254 77 341 0.0 0.0 0.00 0.00 0.00 90 1014.9
20260901054751 77 334 0.0 0.0 0.00 0.00 0.00 91 1014.9
20260901054247 77 335 0.0 0.9 0.00 0.00 0.00 91 1014.9
20260901053743 77 333 0.0 0.9 0.00 0.00 0.00 91 1014.8
20260901053243 77 339 0.0 0.0 0.00 0.00 0.00 91 1014.8
20260901052739 77 348 0.0 0.0 0.00 0.00 0.00 90 1014.6
20260901052234 77 341 0.0 0.0 0.00 0.00 0.00 90 1014.6
20260901051733 77 341 0.9 0.9 0.00 0.00 0.00 91 1014.3
20260901051228 76 337 0.0 0.9 0.00 0.00 0.00 93 1014.5
20260901050724 76 351 0.0 0.0 0.00 0.00 0.00 93 1014.6
20260901050219 76 351 0.0 0.0 0.00 0.00 0.00 92 1014.4
20260901045714 77 351 0.0 0.0 0.00 0.00 0.00 92 1014.5
20260901045209 77 347 0.0 0.0 0.00 0.00 0.00 91 1014.5
20260901044704 78 340 0.9 0.9 0.00 0.00 0.00 90 1014.5
20260901044200 78 345 0.0 0.0 0.00 0.00 0.00 88 1014.6
20260901043655 78 333 0.0 0.0 0.00 0.00 0.00 87 1014.5
20260901043151 79 338 0.0 0.0 0.00 0.00 0.00 87 1014.4
20260901042650 78 303 0.9 0.9 0.00 0.00 0.00 87 1014.3
20260901042145 78 330 0.9 0.9 0.00 0.00 0.00 87 1014.2
20260901041641 79 340 0.0 0.0 0.00 0.00 0.00 87 1014.3
20260901041136 79 334 1.7 2.6 0.00 0.00 0.00 87 1014.1
20260901040636 79 289 1.7 2.6 0.00 0.00 0.00 87 1014.3
20260901040135 79 328 1.7 1.7 0.00 0.00 0.00 86 1014.3
20260901035633 79 265 1.7 1.7 0.00 0.00 0.00 86 1014.3
20260901035132 79 284 1.7 2.6 0.00 0.00 0.00 86 1014.4
20260901034627 79 337 0.0 0.9 0.00 0.00 0.00 86 1014.6
20260901034126 80 353 0.0 0.9 0.00 0.00 0.00 86 1014.5
20260901033621 80 277 1.7 1.7 0.00 0.00 0.00 86 1014.3
20260901033120 80 328 0.9 0.9 0.00 0.00 0.00 86 1014.4
20260901032619 79 314 1.7 1.7 0.00 0.00 0.00 86 1014.7
20260901032114 79 341 0.0 0.0 0.00 0.00 0.00 89 1014.6
20260901031610 79 325 0.9 0.9 0.00 0.00 0.00 89 1014.7
20260901031106 79 328 0.0 0.9 0.00 0.00 0.00 90 1014.8
20260901030605 79 4 0.0 0.9 0.00 0.00 0.00 90 1014.5
20260901030100 78 349 0.0 0.0 0.00 0.00 0.00 90 1014.5
20260901025559 79 349 0.9 0.9 0.00 0.00 0.00 90 1014.8
20260901025054 79 349 0.0 0.0 0.00 0.00 0.00 89 1014.6
20260901024549 79 348 0.0 0.0 0.00 0.00 0.00 89 1014.5
20260901024047 79 343 0.0 0.0 0.00 0.00 0.00 89 1014.6
20260901023546 79 343 0.0 0.0 0.00 0.00 0.00 89 1014.5
20260901023042 79 343 0.0 0.0 0.00 0.00 0.00 88 1014.6
20260901022537 80 343 0.0 0.9 0.00 0.00 0.00 87 1014.5
20260901022032 81 343 0.0 0.0 0.00 0.00 0.00 85 1014.3
20260901021528 81 344 0.0 0.0 0.00 0.00 0.00 84 1014.4
20260901021023 82 345 0.0 0.0 0.00 0.00 0.00 83 1014.5
20260901020518 82 338 0.0 0.9 0.00 0.00 0.00 83 1014.5
20260901020014 82 332 0.0 0.0 0.00 0.00 0.00 83 1014.5
20260901015509 82 333 0.9 0.9 0.00 0.00 0.00 82 1014.5
20260901015008 82 345 0.0 0.0 0.00 0.00 0.00 82 1014.5
20260901014504 82 327 0.9 0.9 0.00 0.00 0.00 82 1014.3
20260901014000 82 341 0.0 0.0 0.00 0.00 0.00 81 1014.5
20260901013455 83 339 0.0 0.0 0.00 0.00 0.00 81 1014.2
20260901012951 83 311 0.9 1.7 0.00 0.00 0.00 80 1014.0
20260901012450 83 297 0.9 1.7 0.00 0.00 0.00 79 1014.0
20260901011946 84 320 0.9 0.9 0.00 0.00 0.00 78 1014.0
20260901011442 84 331 0.9 0.9 0.00 0.00 0.00 78 1013.7
20260901010940 84 292 0.9 1.7 0.00 0.00 0.00 78 1013.9
20260901010435 84 333 0.9 0.9 0.00 0.00 0.00 77 1014.0
20260901005934 84 337 0.9 1.7 0.00 0.00 0.00 77 1013.7
20260901005429 85 343 0.0 0.9 0.00 0.00 0.00 76 1014.0
20260901004924 85 332 0.0 0.0 0.00 0.00 0.00 76 1013.7
20260901004424 85 319 0.9 0.9 0.00 0.00 0.00 75 1014.1
20260901003919 85 293 1.7 2.6 0.00 0.00 0.00 75 1013.7
20260901003414 85 298 1.7 2.6 0.00 0.00 0.00 75 1013.9
20260901002912 86 334 1.7 1.7 0.00 0.00 0.00 74 1013.7
20260901002407 86 243 1.7 2.6 0.00 0.00 0.00 74 1013.6
20260901001907 86 237 2.6 3.5 0.00 0.00 0.00 73 1013.4
20260901001402 87 258 1.7 1.7 0.00 0.00 0.00 73 1013.5
20260901000857 87 299 0.0 0.9 0.00 0.00 0.00 72 1013.5
20260901000352 87 248 3.5 5.2 0.00 0.00 0.00 72 1013.4
20260831235851 87 333 1.7 1.7 0.00 0.00 0.00 71 1013.5
20260831235347 87 257 5.2 6.1 0.00 0.00 0.00 71 1013.7
20260831234842 87 249 2.6 3.5 0.00 0.00 0.00 70 1013.6
20260831234342 88 281 2.6 2.6 0.00 0.00 0.00 70 1013.5
20260831233837 88 253 3.5 3.5 0.00 0.00 0.00 69 1013.6
20260831233332 88 278 2.6 2.6 0.00 0.00 0.00 69 1013.4
20260831232828 88 265 3.5 6.1 0.00 0.00 0.00 69 1013.5
20260831232324 89 311 3.5 7.0 0.00 0.00 0.00 69 1013.4
20260831231820 89 253 3.5 3.5 0.00 0.00 0.00 68 1013.5
20260831231316 89 219 3.5 5.2 0.00 0.00 0.00 68 1013.4
20260831230811 88 295 3.5 3.5 0.00 0.00 0.00 70 1013.3
20260831230306 89 284 3.5 5.2 0.00 0.00 0.00 69 1013.3
20260831225805 89 313 2.6 3.5 0.00 0.00 0.00 68 1013.2
20260831225301 90 329 2.6 2.6 0.00 0.00 0.00 67 1013.2
20260831224756 90 278 2.6 3.5 0.00 0.00 0.00 65 1013.2
20260831224251 90 273 1.7 2.6 0.00 0.00 0.00 65 1012.9
20260831223746 90 191 5.2 6.1 0.00 0.00 0.00 65 1013.0
20260831223242 90 212 3.5 3.5 0.00 0.00 0.00 64 1013.2
20260831222738 91 279 3.5 3.5 0.00 0.00 0.00 64 1013.1
20260831222234 90 258 3.5 3.5 0.00 0.00 0.00 65 1012.9
20260831221729 91 264 1.7 2.6 0.00 0.00 0.00 65 1012.9
20260831221224 90 304 1.7 3.5 0.00 0.00 0.00 64 1012.8
20260831220719 90 203 4.3 5.2 0.00 0.00 0.00 65 1012.7
20260831220214 89 186 3.5 5.2 0.00 0.00 0.00 66 1012.9
20260831215709 90 236 3.5 5.2 0.00 0.00 0.00 65 1013.3
20260831215205 90 55 1.7 2.6 0.00 0.00 0.00 65 1013.4
20260831214702 90 221 4.3 6.1 0.00 0.00 0.00 65 1013.4
20260831214159 90 253 4.3 5.2 0.00 0.00 0.00 65 1013.4
20260831213654 89 325 3.5 5.2 0.00 0.00 0.00 64 1013.4
20260831213150 90 238 7.0 7.0 0.00 0.00 0.00 64 1013.3
20260831212646 91 263 5.2 7.8 0.00 0.00 0.00 63 1013.3
20260831212143 91 310 6.1 7.0 0.00 0.00 0.00 62 1013.3
20260831211641 91 275 4.3 6.1 0.00 0.00 0.00 63 1013.2
20260831211141 91 236 5.2 7.0 0.00 0.00 0.00 63 1013.3
20260831210636 92 240 5.2 7.0 0.00 0.00 0.00 61 1013.3
20260831210132 90 206 4.3 5.2 0.00 0.00 0.00 63 1013.1
20260831205631 89 184 3.5 5.2 0.00 0.00 0.00 64 1013.5
20260831205127 90 255 4.3 6.1 0.00 0.00 0.00 63 1013.5
20260831204627 90 241 6.1 7.0 0.00 0.00 0.00 62 1013.5
20260831204126 91 336 4.3 5.2 0.00 0.00 0.00 62 1013.4
20260831203620 91 204 5.2 6.1 0.00 0.00 0.00 60 1013.3
20260831203120 91 230 3.5 3.5 0.00 0.00 0.00 60 1013.3
20260831202619 91 221 2.6 2.6 0.00 0.00 0.00 61 1013.3
20260831202119 91 270 3.5 6.1 0.00 0.00 0.00 61 1013.2
20260831201618 91 291 1.7 2.6 0.00 0.00 0.00 60 1013.5
20260831201114 91 240 5.2 7.0 0.00 0.00 0.00 61 1013.5
20260831200610 90 261 4.3 5.2 0.00 0.00 0.00 61 1013.4
20260831200109 91 280 3.5 5.2 0.00 0.00 0.00 59 1013.4
20260831195605 91 222 5.2 6.1 0.00 0.00 0.00 58 1013.3
20260831195100 90 246 4.3 5.2 0.00 0.00 0.00 61 1013.6
20260831194555 91 297 2.6 2.6 0.00 0.00 0.00 59 1013.5
20260831194049 91 348 3.5 3.5 0.00 0.00 0.00 60 1013.4
20260831193546 90 321 0.9 0.9 0.00 0.00 0.00 59 1013.6
20260831193045 89 270 3.5 3.5 0.00 0.00 0.00 62 1013.5
20260831192540 90 287 3.5 3.5 0.00 0.00 0.00 61 1013.3
20260831192035 90 257 4.3 6.1 0.00 0.00 0.00 61 1013.4
20260831191531 90 265 1.7 2.6 0.00 0.00 0.00 60 1013.3
20260831191027 89 237 3.5 3.5 0.00 0.00 0.00 60 1013.5
20260831190522 89 347 3.5 5.2 0.00 0.00 0.00 61 1013.2
20260831190021 90 285 7.0 8.7 0.00 0.00 0.00 61 1013.3
20260831185517 90 260 1.7 2.6 0.00 0.00 0.00 60 1013.3
20260831185012 89 266 3.5 3.5 0.00 0.00 0.00 61 1013.3
20260831184507 88 247 5.2 6.1 0.00 0.00 0.00 63 1013.3
20260831184002 89 329 2.6 2.6 0.00 0.00 0.00 61 1013.5
20260831183501 89 327 3.5 5.2 0.00 0.00 0.00 60 1013.5
20260831183001 89 313 2.6 2.6 0.00 0.00 0.00 61 1013.4
20260831182456 89 264 5.2 6.1 0.00 0.00 0.00 59 1013.5
20260831181951 87 294 1.7 2.6 0.00 0.00 0.00 62 1013.6
20260831181446 88 262 6.1 7.0 0.00 0.00 0.00 62 1013.6
20260831180941 88 276 5.2 5.2 0.00 0.00 0.00 62 1013.9
20260831180435 87 263 3.5 6.1 0.00 0.00 0.00 61 1014.1
20260831175934 87 341 3.5 3.5 0.00 0.00 0.00 62 1014.2
20260831175431 87 330 1.7 2.6 0.00 0.00 0.00 63 1013.7
20260831174926 88 295 2.6 2.6 0.00 0.00 0.00 60 1014.0
20260831174422 87 312 1.7 2.6 0.00 0.00 0.00 63 1014.0
20260831173921 86 285 4.3 5.2 0.00 0.00 0.00 64 1013.6
20260831173420 86 269 4.3 5.2 0.00 0.00 0.00 64 1013.7
20260831172916 86 269 2.6 2.6 0.00 0.00 0.00 63 1013.6
20260831172412 86 267 2.6 2.6 0.00 0.00 0.00 62 1013.7
20260831171911 87 254 3.5 5.2 0.00 0.00 0.00 60 1013.6
20260831171408 88 306 3.5 3.5 0.00 0.00 0.00 60 1013.9
20260831170904 87 242 1.7 2.6 0.00 0.00 0.00 61 1014.0
20260831170400 86 293 2.6 2.6 0.00 0.00 0.00 64 1014.0
20260831165856 85 210 2.6 3.5 0.00 0.00 0.00 64 1014.1
20260831165352 86 305 5.2 7.0 0.00 0.00 0.00 64 1014.0
20260831164848 85 347 3.5 6.1 0.00 0.00 0.00 64 1014.3
20260831164344 86 242 4.3 7.0 0.00 0.00 0.00 63 1014.2
20260831163840 85 272 5.2 7.0 0.00 0.00 0.00 65 1014.3
20260831163335 85 252 2.6 5.2 0.00 0.00 0.00 64 1014.1
20260831162833 85 312 3.5 5.2 0.00 0.00 0.00 65 1014.1
20260831162329 85 252 4.3 6.1 0.00 0.00 0.00 66 1014.2
20260831161828 85 277 3.5 3.5 0.00 0.00 0.00 66 1014.0
20260831161324 84 283 3.5 3.5 0.00 0.00 0.00 66 1014.0
20260831160819 84 256 2.6 2.6 0.00 0.00 0.00 65 1014.1
20260831160314 84 341 2.6 3.5 0.00 0.00 0.00 66 1014.1
20260831155814 84 259 3.5 3.5 0.00 0.00 0.00 66 1014.0
20260831155309 84 336 0.9 0.9 0.00 0.00 0.00 66 1014.1
20260831154805 83 275 3.5 5.2 0.00 0.00 0.00 66 1013.9
20260831154301 83 302 5.2 6.1 0.00 0.00 0.00 66 1013.6